Time,TemperatureF,DewpointF,PressureIn,WindDirection,WindDirectionDegrees,WindSpeedMPH,WindSpeedGustMPH,Humidity,HourlyPrecipIn,Conditions,Clouds,dailyrainin,SoftwareType,DateUTC
2013-12-05 00:02:00,-10.7,14.5,30.57,NE,45,6.0,8.0,79,0.00,,,0.00,meteohub,2013-12-05 07:02:00,
2013-12-05 00:07:00,-11.2,14.0,30.56,NE,44,6.0,8.0,79,0.00,,,0.00,meteohub,2013-12-05 07:07:00,
2013-12-05 00:12:00,-11.6,14.4,30.56,NE,45,6.0,9.0,79,0.00,,,0.00,meteohub,2013-12-05 07:12:00,
2013-12-05 00:17:00,-11.6,14.5,30.56,NE,51,6.0,9.0,80,0.00,,,0.00,meteohub,2013-12-05 07:17:00,
2013-12-05 00:22:00,-11.6,14.4,30.56,NE,41,6.0,9.0,80,0.00,,,0.00,meteohub,2013-12-05 07:22:00,
2013-12-05 00:27:00,-11.6,14.5,30.56,NE,45,7.0,9.0,80,0.00,,,0.00,meteohub,2013-12-05 07:27:00,
2013-12-05 00:32:00,-11.7,14.5,30.56,NE,46,7.0,9.0,80,0.00,,,0.00,meteohub,2013-12-05 07:32:00,
2013-12-05 00:37:00,-11.7,14.2,30.56,NE,48,6.0,10.0,80,0.00,,,0.00,meteohub,2013-12-05 07:37:00,
2013-12-05 00:42:00,-11.6,14.4,30.56,NE,44,6.0,10.0,80,0.00,,,0.00,meteohub,2013-12-05 07:42:00,
2013-12-05 00:47:00,-11.6,14.5,30.56,NE,41,5.0,9.0,80,0.00,,,0.00,meteohub,2013-12-05 07:47:00,
2013-12-05 00:52:00,-11.7,14.4,30.56,NNE,28,3.0,8.0,80,0.00,,,0.00,meteohub,2013-12-05 07:52:00,
2013-12-05 00:57:00,-11.9,12.0,30.56,East,90,2.0,8.0,80,0.00,,,0.00,meteohub,2013-12-05 07:57:00,
2013-12-05 01:02:00,-11.9,12.0,30.56,NNE,30,3.0,7.0,80,0.00,,,0.00,meteohub,2013-12-05 08:02:00,
2013-12-05 01:07:00,-12.3,14.0,30.56,NNE,30,2.0,6.0,80,0.00,,,0.00,meteohub,2013-12-05 08:07:00,
2013-12-05 01:12:00,-12.3,12.0,30.56,NNE,27,3.0,5.0,80,0.00,,,0.00,meteohub,2013-12-05 08:12:00,
2013-12-05 01:17:00,-12.5,11.7,30.56,North,359,2.0,5.0,80,0.00,,,0.00,meteohub,2013-12-05 08:17:00,
2013-12-05 01:22:00,-12.5,11.8,30.56,NNW,346,2.0,4.0,80,0.00,,,0.00,meteohub,2013-12-05 08:22:00,
2013-12-05 01:27:00,-12.6,12.0,30.56,North,350,2.0,4.0,80,0.00,,,0.00,meteohub,2013-12-05 08:27:00,
2013-12-05 01:32:00,-12.6,12.0,30.56,NNE,19,4.0,4.0,80,0.00,,,0.00,meteohub,2013-12-05 08:32:00,
2013-12-05 01:37:00,-12.6,11.7,30.56,NNE,32,3.0,6.0,80,0.00,,,0.00,meteohub,2013-12-05 08:37:00,
2013-12-05 01:42:00,-12.5,12.0,30.56,NE,44,5.0,6.0,81,0.00,,,0.00,meteohub,2013-12-05 08:42:00,
2013-12-05 01:47:00,-11.9,12.2,30.57,NNE,27,2.0,6.0,81,0.00,,,0.00,meteohub,2013-12-05 08:47:00,
2013-12-05 01:52:00,-11.6,12.0,30.56,NNE,12,2.0,6.0,81,0.00,,,0.00,meteohub,2013-12-05 08:52:00,
2013-12-05 01:57:00,-11.4,12.0,30.56,North,11,6.0,7.0,80,0.00,,,0.00,meteohub,2013-12-05 08:57:00,
2013-12-05 02:02:00,-11.2,11.7,30.56,NNE,32,7.0,7.0,80,0.00,,,0.00,meteohub,2013-12-05 09:02:00,
2013-12-05 02:07:00,-10.8,11.7,30.56,NE,41,6.0,9.0,80,0.00,,,0.00,meteohub,2013-12-05 09:07:00,
2013-12-05 02:12:00,-10.8,12.0,30.56,NE,49,7.0,9.0,80,0.00,,,0.00,meteohub,2013-12-05 09:12:00,
2013-12-05 02:17:00,-10.3,12.2,30.56,NE,45,8.0,10.0,80,0.00,,,0.00,meteohub,2013-12-05 09:17:00,
2013-12-05 02:22:00,-10.1,11.8,30.57,NNE,22,6.0,11.0,79,0.00,,,0.00,meteohub,2013-12-05 09:22:00,
2013-12-05 02:27:00,-10.1,12.0,30.56,NNW,341,6.0,11.0,79,0.00,,,0.00,meteohub,2013-12-05 09:27:00,
2013-12-05 02:32:00,-9.9,12.2,30.57,NNE,19,7.0,10.0,80,0.00,,,0.00,meteohub,2013-12-05 09:32:00,
2013-12-05 02:37:00,-9.6,11.8,30.56,NNE,22,3.0,9.0,80,0.00,,,0.00,meteohub,2013-12-05 09:37:00,
2013-12-05 02:42:00,-9.0,12.0,30.57,NNE,25,6.0,9.0,80,0.00,,,0.00,meteohub,2013-12-05 09:42:00,
2013-12-05 02:47:00,-8.5,12.0,30.57,NE,43,5.0,9.0,80,0.00,,,0.00,meteohub,2013-12-05 09:47:00,
2013-12-05 02:52:00,-8.1,11.7,30.57,NE,51,6.0,8.0,80,0.00,,,0.00,meteohub,2013-12-05 09:52:00,
2013-12-05 02:57:00,-8.0,12.0,30.56,NE,44,7.0,8.0,79,0.00,,,0.00,meteohub,2013-12-05 09:57:00,
2013-12-05 03:02:00,-7.8,12.2,30.57,NE,51,5.0,9.0,80,0.00,,,0.00,meteohub,2013-12-05 10:02:00,
2013-12-05 03:07:00,-7.2,11.8,30.57,NE,34,5.0,9.0,80,0.00,,,0.00,meteohub,2013-12-05 10:07:00,
2013-12-05 03:12:00,-6.9,12.0,30.57,NE,37,5.0,9.0,80,0.00,,,0.00,meteohub,2013-12-05 10:12:00,
2013-12-05 03:17:00,-6.5,12.0,30.57,NE,36,8.0,9.0,79,0.00,,,0.00,meteohub,2013-12-05 10:17:00,
2013-12-05 03:22:00,-6.3,12.0,30.57,NNE,18,7.0,11.0,80,0.00,,,0.00,meteohub,2013-12-05 10:22:00,
2013-12-05 03:27:00,-6.2,9.5,30.57,NE,41,6.0,11.0,79,0.00,,,0.00,meteohub,2013-12-05 10:27:00,
2013-12-05 03:32:00,-6.0,12.0,30.57,NE,46,7.0,11.0,79,0.00,,,0.00,meteohub,2013-12-05 10:32:00,
2013-12-05 03:37:00,-5.8,11.8,30.57,NNE,32,8.0,11.0,79,0.00,,,0.00,meteohub,2013-12-05 10:37:00,
2013-12-05 03:42:00,-5.6,12.0,30.57,NE,40,7.0,11.0,78,0.00,,,0.00,meteohub,2013-12-05 10:42:00,
2013-12-05 03:47:00,-5.6,11.8,30.56,NNE,32,9.0,11.0,78,0.00,,,0.00,meteohub,2013-12-05 10:47:00,
2013-12-05 03:52:00,-5.6,11.7,30.56,ENE,58,11.0,11.0,78,0.00,,,0.00,meteohub,2013-12-05 10:52:00,
2013-12-05 03:57:00,-5.6,9.3,30.56,ENE,74,8.0,12.0,78,0.00,,,0.00,meteohub,2013-12-05 10:57:00,
2013-12-05 04:02:00,-5.6,9.5,30.56,NNE,32,5.0,12.0,78,0.00,,,0.00,meteohub,2013-12-05 11:02:00,
2013-12-05 04:07:00,-5.6,12.0,30.56,NE,41,8.0,12.0,78,0.00,,,0.00,meteohub,2013-12-05 11:07:00,
2013-12-05 04:12:00,-5.6,9.5,30.56,NNE,19,6.0,12.0,78,0.00,,,0.00,meteohub,2013-12-05 11:12:00,
2013-12-05 04:17:00,-5.4,12.0,30.56,NE,37,6.0,12.0,78,0.00,,,0.00,meteohub,2013-12-05 11:17:00,
2013-12-05 04:22:00,-5.3,11.5,30.56,NE,36,11.0,12.0,79,0.00,,,0.00,meteohub,2013-12-05 11:22:00,
2013-12-05 04:27:00,-5.1,11.5,30.56,ENE,63,5.0,12.0,79,0.00,,,0.00,meteohub,2013-12-05 11:27:00,
2013-12-05 04:32:00,-4.9,11.8,30.56,NE,42,6.0,12.0,79,0.00,,,0.00,meteohub,2013-12-05 11:32:00,
2013-12-05 04:37:00,-4.7,12.0,30.56,NE,51,9.0,13.0,79,0.00,,,0.00,meteohub,2013-12-05 11:37:00,
2013-12-05 04:42:00,-4.5,11.7,30.56,ENE,60,7.0,13.0,78,0.00,,,0.00,meteohub,2013-12-05 11:42:00,
2013-12-05 04:47:00,-4.4,9.3,30.56,NE,45,5.0,13.0,79,0.00,,,0.00,meteohub,2013-12-05 11:47:00,
2013-12-05 04:52:00,-4.2,9.5,30.56,NE,42,11.0,12.0,79,0.00,,,0.00,meteohub,2013-12-05 11:52:00,
2013-12-05 04:57:00,-3.8,12.0,30.56,ENE,61,8.0,13.0,79,0.00,,,0.00,meteohub,2013-12-05 11:57:00,
2013-12-05 05:02:00,-3.6,9.5,30.56,NE,55,6.0,13.0,79,0.00,,,0.00,meteohub,2013-12-05 12:02:00,
2013-12-05 05:07:00,-3.6,12.0,30.56,NNE,13,10.0,13.0,78,0.00,,,0.00,meteohub,2013-12-05 12:07:00,
2013-12-05 05:12:00,-3.5,12.0,30.56,NE,49,5.0,13.0,78,0.00,,,0.00,meteohub,2013-12-05 12:12:00,
2013-12-05 05:17:00,-3.3,12.0,30.56,NE,48,8.0,15.0,78,0.00,,,0.00,meteohub,2013-12-05 12:17:00,
2013-12-05 05:22:00,-3.1,11.7,30.56,North,11,7.0,15.0,79,0.00,,,0.00,meteohub,2013-12-05 12:22:00,
2013-12-05 05:27:00,-2.9,11.8,30.56,NE,46,6.0,13.0,79,0.00,,,0.00,meteohub,2013-12-05 12:27:00,
2013-12-05 05:32:00,-2.7,12.0,30.56,NE,37,4.0,13.0,79,0.00,,,0.00,meteohub,2013-12-05 12:32:00,
2013-12-05 05:37:00,-2.6,11.5,30.56,ENE,58,7.0,13.0,79,0.00,,,0.00,meteohub,2013-12-05 12:37:00,
2013-12-05 05:42:00,-2.6,11.8,30.55,NE,40,10.0,12.0,78,0.00,,,0.00,meteohub,2013-12-05 12:42:00,
2013-12-05 05:47:00,-2.7,9.5,30.56,NE,45,10.0,11.0,78,0.00,,,0.00,meteohub,2013-12-05 12:47:00,
2013-12-05 05:52:00,-2.7,11.7,30.55,NE,51,8.0,12.0,78,0.00,,,0.00,meteohub,2013-12-05 12:52:00,
2013-12-05 05:57:00,-2.9,9.0,30.56,NE,47,6.0,14.0,78,0.00,,,0.00,meteohub,2013-12-05 12:57:00,
2013-12-05 06:02:00,-2.9,9.3,30.56,NE,46,8.0,14.0,78,0.00,,,0.00,meteohub,2013-12-05 13:02:00,
2013-12-05 06:07:00,-2.9,9.5,30.56,NNE,27,5.0,12.0,78,0.00,,,0.00,meteohub,2013-12-05 13:07:00,
2013-12-05 06:12:00,-2.9,9.7,30.55,NE,49,6.0,12.0,78,0.00,,,0.00,meteohub,2013-12-05 13:12:00,
2013-12-05 06:17:00,-3.3,10.0,30.56,NE,41,10.0,12.0,79,0.00,,,0.00,meteohub,2013-12-05 13:17:00,
2013-12-05 06:22:00,-3.3,10.0,30.55,NE,36,10.0,12.0,79,0.00,,,0.00,meteohub,2013-12-05 13:22:00,
2013-12-05 06:27:00,-3.5,10.4,30.56,NE,39,5.0,12.0,79,0.00,,,0.00,meteohub,2013-12-05 13:27:00,
2013-12-05 06:32:00,-3.5,13.1,30.55,NE,45,7.0,12.0,79,0.00,,,0.00,meteohub,2013-12-05 13:32:00,
2013-12-05 06:37:00,-3.6,10.6,30.55,NE,52,8.0,11.0,79,0.00,,,0.00,meteohub,2013-12-05 13:37:00,
2013-12-05 06:42:00,-3.5,10.8,30.55,NE,40,9.0,12.0,79,0.00,,,0.00,meteohub,2013-12-05 13:42:00,
2013-12-05 06:47:00,-3.3,10.9,30.55,NE,48,8.0,12.0,79,0.00,,,0.00,meteohub,2013-12-05 13:47:00,
2013-12-05 06:52:00,-3.3,13.6,30.56,NE,43,6.0,12.0,79,0.00,,,0.00,meteohub,2013-12-05 13:52:00,
2013-12-05 06:57:00,-3.5,13.8,30.56,NE,46,8.0,12.0,78,0.00,,,0.00,meteohub,2013-12-05 13:57:00,
2013-12-05 07:02:00,-3.5,14.0,30.56,ENE,70,8.0,12.0,78,0.00,,,0.00,meteohub,2013-12-05 14:02:00,
2013-12-05 07:07:00,-3.5,14.2,30.56,NE,50,10.0,11.0,78,0.00,,,0.00,meteohub,2013-12-05 14:07:00,
2013-12-05 07:12:00,-3.5,11.7,30.55,NE,52,8.0,11.0,78,0.00,,,0.00,meteohub,2013-12-05 14:12:00,
2013-12-05 07:17:00,-3.5,11.7,30.55,ENE,66,5.0,12.0,78,0.00,,,0.00,meteohub,2013-12-05 14:17:00,
2013-12-05 07:22:00,-3.5,11.7,30.55,NNE,28,8.0,12.0,78,0.00,,,0.00,meteohub,2013-12-05 14:22:00,
2013-12-05 07:27:00,-3.5,11.7,30.55,ENE,65,9.0,12.0,78,0.00,,,0.00,meteohub,2013-12-05 14:27:00,
2013-12-05 07:32:00,-3.5,11.7,30.55,ENE,60,4.0,12.0,78,0.00,,,0.00,meteohub,2013-12-05 14:32:00,
2013-12-05 07:37:00,-3.5,11.7,30.55,NE,38,8.0,10.0,78,0.00,,,0.00,meteohub,2013-12-05 14:37:00,
2013-12-05 07:42:00,-3.5,11.7,30.55,NE,41,10.0,10.0,79,0.00,,,0.00,meteohub,2013-12-05 14:42:00,
2013-12-05 07:47:00,-3.6,14.2,30.56,NE,45,9.0,10.0,79,0.00,,,0.00,meteohub,2013-12-05 14:47:00,
2013-12-05 07:52:00,-3.6,14.2,30.56,ENE,65,7.0,11.0,79,0.00,,,0.00,meteohub,2013-12-05 14:52:00,
2013-12-05 07:57:00,-3.6,14.2,30.56,NE,50,6.0,11.0,79,0.00,,,0.00,meteohub,2013-12-05 14:57:00,
2013-12-05 08:02:00,-3.6,14.2,30.56,ENE,63,8.0,11.0,79,0.00,,,0.00,meteohub,2013-12-05 15:02:00,
2013-12-05 08:07:00,-3.6,14.4,30.56,NE,49,11.0,11.0,79,0.00,,,0.00,meteohub,2013-12-05 15:07:00,
2013-12-05 08:12:00,-3.6,14.4,30.56,ENE,59,7.0,13.0,79,0.00,,,0.00,meteohub,2013-12-05 15:12:00,
2013-12-05 08:17:00,-3.5,14.4,30.56,ENE,60,5.0,13.0,79,0.00,,,0.00,meteohub,2013-12-05 15:17:00,
2013-12-05 08:22:00,-3.5,11.7,30.56,NE,53,7.0,13.0,79,0.00,,,0.00,meteohub,2013-12-05 15:22:00,
2013-12-05 08:27:00,-3.3,12.0,30.56,NNE,23,7.0,11.0,79,0.00,,,0.00,meteohub,2013-12-05 15:27:00,
2013-12-05 08:32:00,-3.3,14.2,30.56,ENE,72,6.0,11.0,79,0.00,,,0.00,meteohub,2013-12-05 15:32:00,
2013-12-05 08:37:00,-3.1,14.2,30.56,NE,41,7.0,10.0,79,0.00,,,0.00,meteohub,2013-12-05 15:37:00,
2013-12-05 08:42:00,-2.9,14.2,30.56,NE,54,8.0,10.0,79,0.00,,,0.00,meteohub,2013-12-05 15:42:00,
2013-12-05 08:47:00,-2.9,14.2,30.57,NE,51,9.0,10.0,80,0.00,,,0.00,meteohub,2013-12-05 15:47:00,
2013-12-05 08:52:00,-2.7,14.4,30.57,ENE,66,4.0,10.0,80,0.00,,,0.00,meteohub,2013-12-05 15:52:00,
2013-12-05 08:57:00,-2.6,14.7,30.57,NE,40,5.0,11.0,80,0.00,,,0.00,meteohub,2013-12-05 15:57:00,
2013-12-05 09:02:00,-2.6,14.7,30.57,NNE,29,9.0,11.0,80,0.00,,,0.00,meteohub,2013-12-05 16:02:00,
2013-12-05 09:07:00,-2.4,14.7,30.57,NE,49,7.0,11.0,80,0.00,,,0.00,meteohub,2013-12-05 16:07:00,
2013-12-05 09:12:00,-2.0,15.1,30.57,NE,41,6.0,11.0,80,0.00,,,0.00,meteohub,2013-12-05 16:12:00,
2013-12-05 09:17:00,-1.8,15.3,30.57,ENE,66,6.0,11.0,80,0.00,,,0.00,meteohub,2013-12-05 16:17:00,
2013-12-05 09:22:00,-1.7,15.3,30.57,NE,49,7.0,11.0,80,0.00,,,0.00,meteohub,2013-12-05 16:22:00,
2013-12-05 09:27:00,-1.1,15.4,30.57,NE,56,8.0,11.0,80,0.00,,,0.00,meteohub,2013-12-05 16:27:00,
2013-12-05 09:32:00,-1.1,15.6,30.57,ENE,63,6.0,11.0,79,0.00,,,0.00,meteohub,2013-12-05 16:32:00,
2013-12-05 09:37:00,-0.8,15.8,30.57,NE,37,11.0,11.0,79,0.00,,,0.00,meteohub,2013-12-05 16:37:00,
2013-12-05 09:42:00,-0.6,15.8,30.57,NE,55,6.0,11.0,79,0.00,,,0.00,meteohub,2013-12-05 16:42:00,
2013-12-05 09:47:00,-0.4,15.4,30.57,NE,38,8.0,11.0,79,0.00,,,0.00,meteohub,2013-12-05 16:47:00,
2013-12-05 09:52:00,-0.2,15.1,30.57,NE,54,8.0,11.0,79,0.00,,,0.00,meteohub,2013-12-05 16:52:00,
2013-12-05 09:57:00,0.1,14.7,30.57,NNE,33,6.0,11.0,79,0.00,,,0.00,meteohub,2013-12-05 16:57:00,
2013-12-05 10:02:00,0.5,14.2,30.57,NE,35,8.0,11.0,79,0.00,,,0.00,meteohub,2013-12-05 17:02:00,
2013-12-05 10:07:00,0.7,13.6,30.57,NE,54,6.0,10.0,79,0.00,,,0.00,meteohub,2013-12-05 17:07:00,
2013-12-05 10:12:00,0.7,15.6,30.57,NE,52,9.0,10.0,78,0.00,,,0.00,meteohub,2013-12-05 17:12:00,
2013-12-05 10:17:00,0.7,15.3,30.57,NE,37,6.0,10.0,79,0.00,,,0.00,meteohub,2013-12-05 17:17:00,
2013-12-05 10:22:00,0.9,14.9,30.57,NE,41,6.0,10.0,79,0.00,,,0.00,meteohub,2013-12-05 17:22:00,
2013-12-05 10:27:00,1.0,14.5,30.57,NE,49,4.0,10.0,79,0.00,,,0.00,meteohub,2013-12-05 17:27:00,
2013-12-05 10:32:00,1.6,15.1,30.57,ENE,64,3.0,10.0,79,0.00,,,0.00,meteohub,2013-12-05 17:32:00,
2013-12-05 10:37:00,1.8,15.3,30.57,NE,56,5.0,9.0,79,0.00,,,0.00,meteohub,2013-12-05 17:37:00,
2013-12-05 10:42:00,1.8,15.1,30.57,ENE,61,4.0,10.0,78,0.00,,,0.00,meteohub,2013-12-05 17:42:00,
2013-12-05 10:47:00,1.9,14.7,30.57,NE,54,7.0,10.0,79,0.00,,,0.00,meteohub,2013-12-05 17:47:00,
2013-12-05 10:52:00,2.1,14.9,30.57,NE,55,5.0,10.0,79,0.00,,,0.00,meteohub,2013-12-05 17:52:00,
2013-12-05 10:57:00,2.5,14.5,30.57,NE,37,3.0,7.0,78,0.00,,,0.00,meteohub,2013-12-05 17:57:00,
2013-12-05 11:02:00,2.7,14.5,30.56,NE,46,6.0,8.0,78,0.00,,,0.00,meteohub,2013-12-05 18:02:00,
2013-12-05 11:07:00,2.5,14.5,30.56,NNE,20,6.0,8.0,77,0.00,,,0.00,meteohub,2013-12-05 18:07:00,
2013-12-05 11:12:00,2.8,14.5,30.56,ENE,61,6.0,8.0,78,0.00,,,0.00,meteohub,2013-12-05 18:12:00,
2013-12-05 11:17:00,3.4,14.4,30.56,NE,36,4.0,8.0,77,0.00,,,0.00,meteohub,2013-12-05 18:17:00,
2013-12-05 11:22:00,3.7,14.7,30.56,NE,34,3.0,7.0,77,0.00,,,0.00,meteohub,2013-12-05 18:22:00,
2013-12-05 11:27:00,4.3,14.7,30.56,NE,52,3.0,7.0,76,0.00,,,0.00,meteohub,2013-12-05 18:27:00,
2013-12-05 11:32:00,4.6,14.5,30.55,NE,44,2.0,6.0,75,0.00,,,0.00,meteohub,2013-12-05 18:32:00,
2013-12-05 11:37:00,4.6,16.3,30.55,NNE,32,3.0,5.0,75,0.00,,,0.00,meteohub,2013-12-05 18:37:00,
2013-12-05 11:42:00,4.6,16.7,30.55,NNE,24,3.0,6.0,75,0.00,,,0.00,meteohub,2013-12-05 18:42:00,
2013-12-05 11:47:00,4.5,16.7,30.55,NNE,32,5.0,6.0,75,0.00,,,0.00,meteohub,2013-12-05 18:47:00,
2013-12-05 11:52:00,4.6,16.5,30.54,North,11,2.0,6.0,76,0.00,,,0.00,meteohub,2013-12-05 18:52:00,
2013-12-05 11:57:00,5.5,16.9,30.54,North,352,1.0,6.0,76,0.00,,,0.00,meteohub,2013-12-05 18:57:00,
2013-12-05 12:02:00,5.7,16.7,30.53,NE,34,3.0,6.0,74,0.00,,,0.00,meteohub,2013-12-05 19:02:00,
2013-12-05 12:07:00,6.1,16.5,30.53,NNE,29,1.0,5.0,74,0.00,,,0.00,meteohub,2013-12-05 19:07:00,
2013-12-05 12:12:00,6.4,16.7,30.53,NNE,16,0.0,5.0,74,0.00,,,0.00,meteohub,2013-12-05 19:12:00,
2013-12-05 12:17:00,7.3,16.9,30.53,NNW,337,0.0,5.0,73,0.00,,,0.00,meteohub,2013-12-05 19:17:00,
2013-12-05 12:22:00,8.1,16.5,30.53,NE,37,3.0,4.0,73,0.00,,,0.00,meteohub,2013-12-05 19:22:00,
2013-12-05 12:27:00,7.9,16.7,30.53,East,86,4.0,4.0,71,0.00,,,0.00,meteohub,2013-12-05 19:27:00,
2013-12-05 12:32:00,7.9,16.7,30.53,South,172,5.0,5.0,72,0.00,,,0.00,meteohub,2013-12-05 19:32:00,
2013-12-05 12:37:00,9.0,16.5,30.53,WSW,246,1.0,6.0,71,0.00,,,0.00,meteohub,2013-12-05 19:37:00,
2013-12-05 12:42:00,9.3,18.1,30.52,East,96,5.0,6.0,69,0.00,,,0.00,meteohub,2013-12-05 19:42:00,
2013-12-05 12:47:00,9.3,20.5,30.53,SE,142,4.0,6.0,69,0.00,,,0.00,meteohub,2013-12-05 19:47:00,
2013-12-05 12:52:00,9.0,18.7,30.53,South,186,2.0,5.0,68,0.00,,,0.00,meteohub,2013-12-05 19:52:00,
2013-12-05 12:57:00,8.6,18.5,30.53,ENE,77,3.0,6.0,68,0.00,,,0.00,meteohub,2013-12-05 19:57:00,
2013-12-05 13:02:00,7.9,18.3,30.52,East,94,3.0,6.0,69,0.00,,,0.00,meteohub,2013-12-05 20:02:00,
2013-12-05 13:07:00,7.3,18.5,30.52,East,89,2.0,5.0,72,0.00,,,0.00,meteohub,2013-12-05 20:07:00,
2013-12-05 13:12:00,8.1,18.7,30.52,SSE,150,2.0,6.0,70,0.00,,,0.00,meteohub,2013-12-05 20:12:00,
2013-12-05 13:17:00,8.8,18.5,30.52,SSE,152,3.0,6.0,69,0.00,,,0.00,meteohub,2013-12-05 20:17:00,
2013-12-05 13:22:00,9.0,18.3,30.52,East,85,2.0,4.0,68,0.00,,,0.00,meteohub,2013-12-05 20:22:00,
2013-12-05 13:27:00,7.9,18.3,30.52,NE,53,2.0,4.0,67,0.00,,,0.00,meteohub,2013-12-05 20:27:00,
2013-12-05 13:32:00,8.1,18.5,30.52,WSW,245,2.0,4.0,71,0.00,,,0.00,meteohub,2013-12-05 20:32:00,
2013-12-05 13:37:00,8.4,18.3,30.52,SSW,200,3.0,5.0,70,0.00,,,0.00,meteohub,2013-12-05 20:37:00,
2013-12-05 13:42:00,9.1,16.5,30.52,SSE,163,1.0,5.0,69,0.00,,,0.00,meteohub,2013-12-05 20:42:00,
2013-12-05 13:47:00,9.0,16.7,30.52,East,101,4.0,5.0,68,0.00,,,0.00,meteohub,2013-12-05 20:47:00,
2013-12-05 13:52:00,8.1,18.3,30.52,East,89,4.0,5.0,68,0.00,,,0.00,meteohub,2013-12-05 20:52:00,
2013-12-05 13:57:00,7.9,18.0,30.51,ENE,74,2.0,5.0,69,0.00,,,0.00,meteohub,2013-12-05 20:57:00,
2013-12-05 14:02:00,8.2,18.0,30.52,SW,214,2.0,6.0,71,0.00,,,0.00,meteohub,2013-12-05 21:02:00,
2013-12-05 14:07:00,8.1,16.3,30.52,East,91,2.0,6.0,68,0.00,,,0.00,meteohub,2013-12-05 21:07:00,
2013-12-05 14:12:00,7.9,16.2,30.51,East,81,4.0,6.0,69,0.00,,,0.00,meteohub,2013-12-05 21:12:00,
2013-12-05 14:17:00,7.2,18.1,30.52,ENE,78,4.0,6.0,69,0.00,,,0.00,meteohub,2013-12-05 21:17:00,
2013-12-05 14:22:00,7.2,16.5,30.51,ESE,120,2.0,6.0,70,0.00,,,0.00,meteohub,2013-12-05 21:22:00,
2013-12-05 14:27:00,8.1,16.2,30.52,South,173,1.0,6.0,72,0.00,,,0.00,meteohub,2013-12-05 21:27:00,
2013-12-05 14:32:00,8.4,16.2,30.51,ENE,76,3.0,5.0,70,0.00,,,0.00,meteohub,2013-12-05 21:32:00,
2013-12-05 14:37:00,7.7,16.2,30.51,East,79,3.0,5.0,69,0.00,,,0.00,meteohub,2013-12-05 21:37:00,
2013-12-05 14:42:00,7.9,16.7,30.51,ENE,77,3.0,5.0,72,0.00,,,0.00,meteohub,2013-12-05 21:42:00,
2013-12-05 14:47:00,7.7,16.5,30.51,SSE,152,3.0,5.0,71,0.00,,,0.00,meteohub,2013-12-05 21:47:00,
2013-12-05 14:52:00,8.1,16.2,30.51,SSE,152,4.0,5.0,70,0.00,,,0.00,meteohub,2013-12-05 21:52:00,
2013-12-05 14:58:00,8.2,16.2,30.51,East,91,1.0,5.0,70,0.00,,,0.00,meteohub,2013-12-05 21:58:00,
2013-12-05 15:03:00,7.9,16.5,30.51,East,86,2.0,4.0,69,0.00,,,0.00,meteohub,2013-12-05 22:03:00,
2013-12-05 15:08:00,7.7,16.2,30.51,ESE,107,1.0,4.0,71,0.00,,,0.00,meteohub,2013-12-05 22:08:00,
2013-12-05 15:13:00,8.6,16.2,30.51,ESE,107,1.0,4.0,71,0.00,,,0.00,meteohub,2013-12-05 22:13:00,
2013-12-05 15:18:00,8.6,16.5,30.51,SSE,160,2.0,4.0,69,0.00,,,0.00,meteohub,2013-12-05 22:18:00,
2013-12-05 15:23:00,9.0,16.3,30.51,SSE,156,0.0,4.0,69,0.00,,,0.00,meteohub,2013-12-05 22:23:00,
2013-12-05 15:28:00,9.7,16.3,30.51,SW,234,1.0,4.0,69,0.00,,,0.00,meteohub,2013-12-05 22:28:00,
2013-12-05 15:33:00,9.5,16.7,30.51,West,274,0.0,4.0,68,0.00,,,0.00,meteohub,2013-12-05 22:33:00,
2013-12-05 15:38:00,9.0,16.5,30.51,South,179,0.0,2.0,68,0.00,,,0.00,meteohub,2013-12-05 22:38:00,
2013-12-05 15:43:00,9.0,16.2,30.51,SE,135,2.0,2.0,70,0.00,,,0.00,meteohub,2013-12-05 22:43:00,
2013-12-05 15:48:00,8.4,16.2,30.51,West,262,0.0,3.0,70,0.00,,,0.00,meteohub,2013-12-05 22:48:00,
2013-12-05 15:53:00,8.1,16.5,30.51,SW,233,2.0,4.0,70,0.00,,,0.00,meteohub,2013-12-05 22:53:00,
2013-12-05 15:58:00,7.7,16.5,30.51,East,82,1.0,4.0,71,0.00,,,0.00,meteohub,2013-12-05 22:58:00,
2013-12-05 16:03:00,7.3,16.2,30.51,ENE,73,2.0,4.0,72,0.00,,,0.00,meteohub,2013-12-05 23:03:00,
2013-12-05 16:08:00,6.6,16.5,30.52,ENE,74,3.0,4.0,73,0.00,,,0.00,meteohub,2013-12-05 23:08:00,
2013-12-05 16:13:00,6.1,16.5,30.52,East,93,3.0,6.0,74,0.00,,,0.00,meteohub,2013-12-05 23:13:00,
2013-12-05 16:18:00,5.9,16.2,30.52,ENE,76,0.0,6.0,76,0.00,,,0.00,meteohub,2013-12-05 23:18:00,
2013-12-05 16:23:00,5.9,16.2,30.52,ENE,72,2.0,4.0,76,0.00,,,0.00,meteohub,2013-12-05 23:23:00,
2013-12-05 16:28:00,5.7,16.5,30.52,East,79,1.0,5.0,77,0.00,,,0.00,meteohub,2013-12-05 23:28:00,
2013-12-05 16:33:00,5.7,16.3,30.52,SSE,153,2.0,5.0,77,0.00,,,0.00,meteohub,2013-12-05 23:33:00,
2013-12-05 16:38:00,5.5,16.2,30.52,South,190,1.0,3.0,77,0.00,,,0.00,meteohub,2013-12-05 23:38:00,
2013-12-05 16:43:00,5.4,16.5,30.52,SW,224,2.0,4.0,78,0.00,,,0.00,meteohub,2013-12-05 23:43:00,
2013-12-05 16:48:00,5.0,16.7,30.52,East,95,0.0,4.0,78,0.00,,,0.00,meteohub,2013-12-05 23:48:00,
2013-12-05 16:53:00,4.8,16.2,30.52,East,95,0.0,4.0,79,0.00,,,0.00,meteohub,2013-12-05 23:53:00,
2013-12-05 16:58:00,4.6,16.2,30.52,ESE,107,0.0,3.0,79,0.00,,,0.00,meteohub,2013-12-05 23:58:00,
2013-12-05 17:03:00,4.5,16.5,30.52,ESE,105,0.0,2.0,80,0.00,,,0.00,meteohub,2013-12-06 00:03:00,
2013-12-05 17:08:00,4.3,16.3,30.52,East,95,0.0,0.0,80,0.00,,,0.00,meteohub,2013-12-06 00:08:00,
2013-12-05 17:13:00,3.9,16.5,30.52,East,93,0.0,0.0,80,0.00,,,0.00,meteohub,2013-12-06 00:13:00,
2013-12-05 17:18:00,3.7,16.7,30.53,East,93,0.0,0.0,81,0.00,,,0.00,meteohub,2013-12-06 00:18:00,
2013-12-05 17:23:00,3.7,16.2,30.53,East,94,0.0,0.0,82,0.00,,,0.00,meteohub,2013-12-06 00:23:00,
2013-12-05 17:28:00,3.7,16.2,30.52,East,94,0.0,0.0,83,0.00,,,0.00,meteohub,2013-12-06 00:28:00,
2013-12-05 17:34:00,3.6,16.3,30.52,East,94,0.0,0.0,83,0.00,,,0.00,meteohub,2013-12-06 00:34:00,
2013-12-05 17:39:00,3.6,16.2,30.52,East,94,0.0,0.0,84,0.00,,,0.00,meteohub,2013-12-06 00:39:00,
2013-12-05 17:44:00,3.0,16.2,30.52,East,92,1.0,0.0,83,0.00,,,0.00,meteohub,2013-12-06 00:44:00,
2013-12-05 17:49:00,2.8,16.7,30.53,East,82,3.0,3.0,83,0.00,,,0.00,meteohub,2013-12-06 00:49:00,
2013-12-05 17:54:00,2.3,16.7,30.53,ENE,75,0.0,3.0,83,0.00,,,0.00,meteohub,2013-12-06 00:54:00,
2013-12-05 17:59:00,1.9,16.2,30.53,ENE,75,0.0,3.0,83,0.00,,,0.00,meteohub,2013-12-06 00:59:00,
2013-12-05 18:04:00,1.8,16.2,30.53,ENE,73,0.0,3.0,84,0.00,,,0.00,meteohub,2013-12-06 01:04:00,
2013-12-05 18:09:00,1.6,16.3,30.53,ENE,65,1.0,2.0,84,0.00,,,0.00,meteohub,2013-12-06 01:09:00,
2013-12-05 18:14:00,1.2,14.4,30.53,ENE,71,2.0,2.0,83,0.00,,,0.00,meteohub,2013-12-06 01:14:00,
2013-12-05 18:19:00,1.0,16.2,30.53,ENE,71,1.0,3.0,83,0.00,,,0.00,meteohub,2013-12-06 01:19:00,
2013-12-05 18:24:00,1.0,14.5,30.53,ENE,65,2.0,3.0,84,0.00,,,0.00,meteohub,2013-12-06 01:24:00,
2013-12-05 18:29:00,0.9,14.4,30.53,NE,44,2.0,3.0,84,0.00,,,0.00,meteohub,2013-12-06 01:29:00,
2013-12-05 18:34:00,0.1,16.2,30.53,NNE,24,3.0,3.0,83,0.00,,,0.00,meteohub,2013-12-06 01:34:00,
2013-12-05 18:39:00,-1.5,14.4,30.53,NNE,27,2.0,2.0,83,0.00,,,0.00,meteohub,2013-12-06 01:39:00,
2013-12-05 18:44:00,-2.0,14.5,30.53,NE,37,4.0,4.0,84,0.00,,,0.00,meteohub,2013-12-06 01:44:00,
2013-12-05 18:49:00,-2.2,14.0,30.53,NE,35,2.0,4.0,85,0.00,,,0.00,meteohub,2013-12-06 01:49:00,
2013-12-05 18:54:00,-2.7,14.0,30.53,NE,41,3.0,5.0,84,0.00,,,0.00,meteohub,2013-12-06 01:54:00,
2013-12-05 18:59:00,-3.1,14.4,30.53,NE,45,4.0,5.0,84,0.00,,,0.00,meteohub,2013-12-06 01:59:00,
2013-12-05 19:04:00,-3.5,14.4,30.53,NE,53,3.0,5.0,84,0.00,,,0.00,meteohub,2013-12-06 02:04:00,
2013-12-05 19:09:00,-3.6,14.4,30.53,NE,53,3.0,5.0,85,0.00,,,0.00,meteohub,2013-12-06 02:09:00,
2013-12-05 19:14:00,-3.8,14.5,30.54,NE,49,6.0,6.0,85,0.00,,,0.00,meteohub,2013-12-06 02:14:00,
2013-12-05 19:19:00,-3.8,14.4,30.54,NNE,33,5.0,7.0,85,0.00,,,0.00,meteohub,2013-12-06 02:19:00,
2013-12-05 19:24:00,-3.6,14.2,30.54,NE,37,6.0,8.0,85,0.00,,,0.00,meteohub,2013-12-06 02:24:00,
2013-12-05 19:29:00,-4.4,14.5,30.54,NE,45,4.0,8.0,84,0.00,,,0.00,meteohub,2013-12-06 02:29:00,
2013-12-05 19:34:00,-4.7,14.0,30.54,NE,44,4.0,8.0,83,0.00,,,0.00,meteohub,2013-12-06 02:34:00,
2013-12-05 19:39:00,-5.4,14.2,30.55,NNE,22,4.0,7.0,83,0.00,,,0.00,meteohub,2013-12-06 02:39:00,
2013-12-05 19:44:00,-5.6,14.5,30.55,NNE,27,4.0,9.0,83,0.00,,,0.00,meteohub,2013-12-06 02:44:00,
2013-12-05 19:49:00,-6.2,14.4,30.55,NE,41,7.0,9.0,83,0.00,,,0.00,meteohub,2013-12-06 02:49:00,
2013-12-05 19:54:00,-6.9,14.4,30.55,ENE,63,6.0,9.0,82,0.00,,,0.00,meteohub,2013-12-06 02:54:00,
2013-12-05 20:00:00,-7.2,14.5,30.55,NNE,30,6.0,9.0,82,0.00,,,0.00,meteohub,2013-12-06 03:00:00,
2013-12-05 20:05:00,-7.1,14.2,30.56,NE,39,4.0,9.0,83,0.00,,,0.00,meteohub,2013-12-06 03:05:00,
2013-12-05 20:10:00,-7.4,14.4,30.56,NE,38,6.0,9.0,82,0.00,,,0.00,meteohub,2013-12-06 03:10:00,
2013-12-05 20:15:00,-7.6,14.5,30.56,NE,46,5.0,7.0,82,0.00,,,0.00,meteohub,2013-12-06 03:15:00,
2013-12-05 20:20:00,-7.4,14.4,30.56,NE,50,4.0,7.0,83,0.00,,,0.00,meteohub,2013-12-06 03:20:00,
2013-12-05 20:25:00,-7.1,14.4,30.56,NNE,28,6.0,8.0,83,0.00,,,0.00,meteohub,2013-12-06 03:25:00,
2013-12-05 20:30:00,-7.1,14.5,30.56,North,9,4.0,8.0,83,0.00,,,0.00,meteohub,2013-12-06 03:30:00,
2013-12-05 20:35:00,-7.2,14.2,30.56,NE,41,7.0,8.0,83,0.00,,,0.00,meteohub,2013-12-06 03:35:00,
2013-12-05 20:40:00,-7.2,13.8,30.56,NNE,27,4.0,8.0,83,0.00,,,0.00,meteohub,2013-12-06 03:40:00,
2013-12-05 20:45:00,-7.4,14.0,30.56,NE,44,5.0,8.0,83,0.00,,,0.00,meteohub,2013-12-06 03:45:00,
2013-12-05 20:50:00,-7.2,14.4,30.56,NE,45,8.0,8.0,83,0.00,,,0.00,meteohub,2013-12-06 03:50:00,
2013-12-05 20:55:00,-7.1,14.0,30.56,ENE,58,7.0,8.0,83,0.00,,,0.00,meteohub,2013-12-06 03:55:00,
2013-12-05 21:00:00,-6.9,14.0,30.56,NE,40,6.0,9.0,83,0.00,,,0.00,meteohub,2013-12-06 04:00:00,
2013-12-05 21:05:00,-6.9,14.4,30.56,NE,48,6.0,9.0,83,0.00,,,0.00,meteohub,2013-12-06 04:05:00,
2013-12-05 21:10:00,-6.7,14.2,30.56,NE,56,4.0,9.0,83,0.00,,,0.00,meteohub,2013-12-06 04:10:00,
2013-12-05 21:15:00,-6.7,14.0,30.56,NE,37,7.0,9.0,83,0.00,,,0.00,meteohub,2013-12-06 04:15:00,
2013-12-05 21:20:00,-6.9,14.5,30.56,NE,40,6.0,8.0,83,0.00,,,0.00,meteohub,2013-12-06 04:20:00,
2013-12-05 21:25:00,-7.1,14.5,30.56,NE,44,7.0,8.0,82,0.00,,,0.00,meteohub,2013-12-06 04:25:00,
2013-12-05 21:30:00,-7.2,14.0,30.56,NE,34,6.0,8.0,82,0.00,,,0.00,meteohub,2013-12-06 04:30:00,
2013-12-05 21:35:00,-7.6,14.4,30.56,NE,43,4.0,10.0,82,0.00,,,0.00,meteohub,2013-12-06 04:35:00,
2013-12-05 21:40:00,-7.4,14.2,30.56,NE,45,8.0,10.0,83,0.00,,,0.00,meteohub,2013-12-06 04:40:00,
2013-12-05 21:45:00,-7.6,14.0,30.56,NE,45,6.0,10.0,82,0.00,,,0.00,meteohub,2013-12-06 04:45:00,
2013-12-05 21:50:00,-7.8,12.0,30.56,NE,53,6.0,8.0,82,0.00,,,0.00,meteohub,2013-12-06 04:50:00,
2013-12-05 21:55:00,-7.4,12.0,30.56,NNE,29,4.0,8.0,83,0.00,,,0.00,meteohub,2013-12-06 04:55:00,
2013-12-05 22:00:00,-7.1,14.2,30.56,NE,44,6.0,9.0,83,0.00,,,0.00,meteohub,2013-12-06 05:00:00,
2013-12-05 22:01:00,-7.1,14.2,30.56,NE,44,7.0,9.0,83,0.00,,,0.00,meteohub,2013-12-06 05:01:00,
2013-12-05 22:02:00,-7.1,12.0,30.56,NE,37,6.0,9.0,83,0.00,,,0.00,meteohub,2013-12-06 05:02:00,
2013-12-05 22:03:00,-6.9,12.0,30.56,NE,34,4.0,9.0,83,0.00,,,0.00,meteohub,2013-12-06 05:03:00,
2013-12-05 22:06:00,-6.9,12.2,30.57,NE,56,5.0,9.0,83,0.00,,,0.00,meteohub,2013-12-06 05:06:00,
2013-12-05 22:09:00,-7.1,12.0,30.56,NE,44,6.0,9.0,82,0.00,,,0.00,meteohub,2013-12-06 05:09:00,
2013-12-05 22:14:00,-7.4,14.0,30.56,NE,38,7.0,9.0,82,0.00,,,0.00,meteohub,2013-12-06 05:14:00,
2013-12-05 22:19:00,-7.4,12.0,30.56,NE,41,6.0,8.0,82,0.00,,,0.00,meteohub,2013-12-06 05:19:00,
2013-12-05 22:24:00,-7.4,12.0,30.56,NNE,24,7.0,8.0,82,0.00,,,0.00,meteohub,2013-12-06 05:24:00,
2013-12-05 22:29:00,-7.2,11.8,30.56,ENE,59,6.0,9.0,83,0.00,,,0.00,meteohub,2013-12-06 05:29:00,
2013-12-05 22:34:00,-7.2,12.0,30.56,NNE,28,3.0,9.0,83,0.00,,,0.00,meteohub,2013-12-06 05:34:00,
2013-12-05 22:40:00,-7.1,11.8,30.56,NE,41,5.0,9.0,83,0.00,,,0.00,meteohub,2013-12-06 05:40:00,
2013-12-05 22:45:00,-7.2,13.8,30.56,NE,34,7.0,9.0,82,0.00,,,0.00,meteohub,2013-12-06 05:45:00,
2013-12-05 22:50:00,-7.4,14.0,30.56,NE,45,7.0,8.0,82,0.00,,,0.00,meteohub,2013-12-06 05:50:00,
2013-12-05 22:55:00,-7.6,12.0,30.56,NE,46,5.0,9.0,82,0.00,,,0.00,meteohub,2013-12-06 05:55:00,
2013-12-05 23:00:00,-7.4,11.7,30.57,NE,40,5.0,9.0,82,0.00,,,0.00,meteohub,2013-12-06 06:00:00,
2013-12-05 23:05:00,-7.4,11.8,30.56,NE,40,8.0,9.0,83,0.00,,,0.00,meteohub,2013-12-06 06:05:00,
2013-12-05 23:10:00,-7.4,12.0,30.57,NE,56,6.0,10.0,82,0.00,,,0.00,meteohub,2013-12-06 06:10:00,
2013-12-05 23:15:00,-7.4,11.7,30.56,NNE,14,8.0,10.0,82,0.00,,,0.00,meteohub,2013-12-06 06:15:00,
2013-12-05 23:20:00,-7.4,11.7,30.57,NE,40,6.0,10.0,82,0.00,,,0.00,meteohub,2013-12-06 06:20:00,
2013-12-05 23:25:00,-7.2,12.0,30.57,NNE,33,4.0,10.0,82,0.00,,,0.00,meteohub,2013-12-06 06:25:00,
2013-12-05 23:30:00,-7.4,12.0,30.57,NNE,32,5.0,8.0,82,0.00,,,0.00,meteohub,2013-12-06 06:30:00,
2013-12-05 23:35:00,-7.2,11.7,30.56,NE,35,6.0,9.0,82,0.00,,,0.00,meteohub,2013-12-06 06:35:00,
2013-12-05 23:40:00,-7.2,12.0,30.57,NE,45,8.0,9.0,82,0.00,,,0.00,meteohub,2013-12-06 06:40:00,
2013-12-05 23:45:00,-6.9,12.0,30.57,NE,56,5.0,9.0,82,0.00,,,0.00,meteohub,2013-12-06 06:45:00,
2013-12-05 23:50:00,-6.5,11.8,30.57,NE,37,5.0,10.0,82,0.00,,,0.00,meteohub,2013-12-06 06:50:00,
2013-12-05 23:55:00,-6.5,12.0,30.57,NE,34,4.0,10.0,82,0.00,,,0.00,meteohub,2013-12-06 06:55:00,